Project,Study,Ord_Occ,Event_Num,Cast_ID,Date_Time_UTC,Date_Time_PST,Lat_Dec,Lon_Dec,Sta_ID,Line,Sta,Depth,Pressure,PrQ,Temp1,Temp1Q,Temp2,Temp2Q,TempAve,Salt1,Salt1Q,Salt1_Corr,Salt2,Salt2Q,Salt2_Corr,SaltAve_Corr,Ox1,Ox1Q,Ox1_CruiseCorr,Ox1_StaCorr,Ox2,Ox2Q,Ox2_CruiseCorr,Ox2_StaCorr,OxAve_StaCorr,Ox1uM,Ox1uM_CruiseCorr,Ox1uM_StaCorr,Ox2uM,Ox2uM_CruiseCorr,Ox2uM_StaCorr,OxAveuM_StaCorr,FluorV,FluorQ,EstChl_CruiseCorr,EstChl_StaCorr,ISUSV,ISUSQ,EstNO3_CruiseCorr,EstNO3_StaCorr,SigThetaTS1,SigThetaTS1Q,SigThetaTS2,SigThetaTS2Q,BAT,XMiss,TransQ,pH,pHQ,SPAR,SPARQ,PAR,PARQ,PoT1,PoT2,DynHt,SVA,OxSat1,OxSat2,BTL_Depth,BTL_Temp,SaltB,OxB,OxBuM,Chl-a,Phaeo,NO3,NO2,NH4,PO4,SIL
CalCOFI,2007SR,020,21,2007_020d,17-Jul-2020 05:37:34,16-Jul-2020 21:37:34,31.08512,-122.66185,090.0 100.0,090.0,100.0,1.000,1.007,,18.7736,,18.7738,,18.7737,33.3210,,33.3212,33.3217,,33.3233,33.3223,5.2508,,5.4689,5.4559,4.0317,,5.6837,4.3431,4.8995,229.051,238.6182,239.8320,175.868,394.6812,189.9046,214.8683,0.0339,,,0.0493,,,,,23.7953,,23.7958,,0.6558,84.8776,,8.123,,1.9043E+00,,1.9288E-01,,18.7734,18.7735,-0.0019,,98.203,75.402,,,,,,,,,,,,
CalCOFI,2007SR,020,21,2007_020d,17-Jul-2020 05:37:37,16-Jul-2020 21:37:37,31.08512,-122.66183,090.0 100.0,090.0,100.0,2.000,2.014,,18.7731,,18.7729,,18.7730,33.3211,,33.3213,33.3216,,33.3232,33.3223,5.2498,,5.4678,5.4549,4.0307,,5.6813,4.3408,4.8979,229.006,238.5713,239.7844,175.827,394.5712,189.8084,214.7964,0.0339,,,0.0493,,,,,23.7956,,23.7961,,0.6575,84.8429,,8.123,,1.9043E+00,,1.5830E-01,,18.7728,18.7725,0.0022,,98.183,75.383,2,18.690,33.3048,5.471,238.86,0.067,0.013,,,,,1.25
CalCOFI,2007SR,020,21,2007_020d,17-Jul-2020 05:37:53,16-Jul-2020 21:37:53,31.08512,-122.66184,090.0 100.0,090.0,100.0,3.000,3.021,,18.7737,,18.7735,,18.7736,33.3211,,33.3213,33.3216,,33.3232,33.3223,5.2460,,5.4638,5.4509,4.0209,,5.6579,4.3189,4.8849,228.840,238.3980,239.6087,175.399,394.1652,188.8040,214.2064,0.0335,,,0.0463,,,,,23.7955,,23.7960,,0.6570,84.8518,,8.123,,1.9043E+00,,1.0430E-01,,18.7731,18.7729,0.0120,,98.113,75.201,,,,,,,,,,,,
CalCOFI,2007SR,020,21,2007_020d,17-Jul-2020 05:37:57,16-Jul-2020 21:37:57,31.08512,-122.66184,090.0 100.0,090.0,100.0,4.000,4.028,,18.7747,,18.7745,,18.7746,33.3211,,33.3213,33.3217,,33.3233,33.3223,5.2476,,5.4655,5.4526,4.0208,,5.6577,4.3187,4.8857,228.913,238.4742,239.6860,175.395,394.3437,188.7946,214.2403,0.0329,,,0.0419,,,,,23.7953,,23.7958,,0.6572,84.8487,,8.123,,1.9043E+00,,6.9410E-02,,18.7740,18.7738,0.0167,,98.146,75.200,,,,,,,,,,,,
CalCOFI,2007SR,020,21,2007_020d,17-Jul-2020 05:37:58,16-Jul-2020 21:37:58,31.08512,-122.66184,090.0 100.0,090.0,100.0,5.000,5.035,,18.7741,,18.7737,,18.7739,33.3211,,33.3213,33.3217,,33.3233,33.3223,5.2464,,5.4643,5.4513,4.0208,,5.6577,4.3187,4.8850,228.857,238.4157,239.6267,175.395,394.2067,188.7946,214.2107,0.0327,,,0.0405,,,,,23.7955,,23.7960,,0.6574,84.8445,,8.123,,1.9043E+00,,5.7251E-02,,18.7732,18.7728,0.0208,,98.121,75.199,,,,,,,,,,,,
CalCOFI,2007SR,020,21,2007_020d,17-Jul-2020 05:37:59,16-Jul-2020 21:37:59,31.08513,-122.66184,090.0 100.0,090.0,100.0,6.000,6.042,,18.7737,,18.7736,,18.7737,33.3212,,33.3214,33.3217,,33.3233,33.3224,5.2452,,5.4630,5.4500,4.0215,,5.6593,4.3202,4.8851,228.806,238.3625,239.5727,175.427,394.0820,188.8697,214.2212,0.0330,,,0.0427,,,,,23.7957,,23.7961,,0.6577,84.8377,,8.123,,1.9043E+00,,5.8611E-02,,18.7727,18.7726,0.0249,,98.099,75.213,,,,,,,,,,,,
CalCOFI,2007SR,020,21,2007_020d,17-Jul-2020 05:38:04,16-Jul-2020 21:38:04,31.08512,-122.66184,090.0 100.0,090.0,100.0,7.000,7.049,,18.7733,,18.7737,,18.7735,33.3211,,33.3213,33.3217,,33.3233,33.3223,5.2475,,5.4654,5.4524,4.0221,,5.6608,4.3216,4.8870,228.905,238.4658,239.6775,175.451,394.3241,188.9260,214.3018,0.0338,,,0.0485,,,,,23.7958,,23.7961,,0.6572,84.8480,,8.123,,1.9043E+00,,2.5419E-02,,18.7721,18.7724,0.0290,,98.140,75.223,,,,,,,,,,,,
CalCOFI,2007SR,020,21,2007_020d,17-Jul-2020 05:38:06,16-Jul-2020 21:38:06,31.08512,-122.66184,090.0 100.0,090.0,100.0,8.000,8.056,,18.7749,,18.7748,,18.7749,33.3211,,33.3213,33.3217,,33.3233,33.3223,5.2476,,5.4655,5.4526,4.0225,,5.6617,4.3225,4.8876,228.910,238.4710,239.6828,175.469,394.3364,188.9683,214.3256,0.0332,,,0.0441,,,,,23.7954,,23.7959,,0.6574,84.8435,,8.123,,1.9043E+00,,1.8346E-02,,18.7735,18.7734,0.0332,,98.146,75.232,,,,,,,,,,,,
CalCOFI,2007SR,020,21,2007_020d,17-Jul-2020 05:38:07,16-Jul-2020 21:38:07,31.08512,-122.66184,090.0 100.0,090.0,100.0,9.000,9.063,,18.7751,,18.7751,,18.7751,33.3210,,33.3212,33.3217,,33.3233,33.3223,5.2473,,5.4652,5.4522,4.0230,,5.6629,4.3236,4.8879,228.899,238.4596,239.6712,175.490,394.3095,189.0175,214.3444,0.0327,,,0.0405,,,,,23.7953,,23.7959,,0.6592,84.8052,,8.124,,1.9043E+00,,8.4458E-03,,18.7735,18.7735,0.0373,,98.141,75.242,,,,,,,,,,,,
CalCOFI,2007SR,020,21,2007_020d,17-Jul-2020 05:38:08,16-Jul-2020 21:38:08,31.08512,-122.66184,090.0 100.0,090.0,100.0,10.000,10.070,,18.7758,,18.7758,,18.7758,33.3211,,33.3213,33.3217,,33.3233,33.3223,5.2423,,5.4600,5.4470,4.0234,,5.6639,4.3245,4.8858,228.682,238.2330,239.4415,175.509,393.7787,189.0621,214.2518,0.0337,,,0.0478,,,,,23.7953,,23.7957,,0.6577,84.8381,,8.123,,1.9043E+00,,3.4636E-03,,18.7740,18.7741,0.0414,,98.049,75.251,,,,,,,,,,,,
CalCOFI,2007SR,020,21,2007_020d,17-Jul-2020 05:38:10,16-Jul-2020 21:38:10,31.08514,-122.66184,090.0 100.0,090.0,100.0,11.000,11.077,,18.7761,,18.7759,,18.7760,33.3211,,33.3213,33.3217,,33.3233,33.3223,5.2436,,5.4613,5.4483,4.0210,,5.6581,4.3191,4.8837,228.738,238.2915,239.5008,175.402,393.9157,188.8110,214.1559,0.0337,,,0.0478,,,,,23.7952,,23.7958,,0.6572,84.8479,,8.123,,1.9043E+00,,6.8750E-03,,18.7741,18.7740,0.0456,,98.074,75.206,,,,,,,,,,,,
CalCOFI,2007SR,020,21,2007_020d,17-Jul-2020 05:38:13,16-Jul-2020 21:38:13,31.08512,-122.66184,090.0 100.0,090.0,100.0,12.000,12.084,,18.7760,,18.7760,,18.7760,33.3212,,33.3214,33.3218,,33.3234,33.3224,5.2475,,5.4654,5.4524,4.0207,,5.6574,4.3185,4.8855,228.906,238.4669,239.6786,175.389,394.3266,188.7805,214.2296,0.0338,,,0.0485,,,,,23.7953,,23.7958,,0.6567,84.8581,,8.123,,1.9043E+00,,1.7444E-03,,18.7739,18.7738,0.0497,,98.146,75.200,12,18.678,33.3039,5.462,238.47,0.071,0.020,,,,,1.23
CalCOFI,2007SR,020,21,2007_020d,17-Jul-2020 05:38:16,16-Jul-2020 21:38:16,31.08512,-122.66184,090.0 100.0,090.0,100.0,13.000,13.091,,18.7757,,18.7757,,18.7757,33.3211,,33.3213,33.3217,,33.3233,33.3223,5.2446,,5.4624,5.4494,4.0214,,5.6591,4.3200,4.8847,228.779,238.3343,239.5442,175.420,394.0160,188.8533,214.1988,0.0336,,,0.0471,,,,,23.7955,,23.7959,,0.6575,84.8411,,8.123,,1.9043E+00,,1.4280E-03,,18.7734,18.7734,0.0538,,98.090,75.213,,,,,,,,,,,,
CalCOFI,2007SR,020,21,2007_020d,17-Jul-2020 05:38:17,16-Jul-2020 21:38:17,31.08512,-122.66184,090.0 100.0,090.0,100.0,14.000,14.098,,18.7763,,18.7763,,18.7763,33.3212,,33.3214,33.3218,,33.3234,33.3224,5.2458,,5.4636,5.4507,4.0218,,5.6600,4.3209,4.8858,228.834,238.3917,239.6024,175.439,394.1505,188.8979,214.2502,0.0335,,,0.0463,,,,,23.7954,,23.7958,,0.6570,84.8525,,8.123,,1.9043E+00,,-9.841E-06,,18.7738,18.7739,0.0579,,98.115,75.222,,,,,,,,,,,,
CalCOFI,2007SR,020,21,2007_020d,17-Jul-2020 05:38:18,16-Jul-2020 21:38:18,31.08512,-122.66184,090.0 100.0,090.0,100.0,15.000,15.105,,18.7767,,18.7767,,18.7767,33.3211,,33.3213,33.3217,,33.3233,33.3223,5.2479,,5.4658,5.4529,4.0223,,5.6612,4.3220,4.8875,228.925,238.4867,239.6987,175.460,394.3731,188.9471,214.3229,0.0331,,,0.0434,,,,,23.7952,,23.7958,,0.6581,84.8306,,8.123,,1.9043E+00,,1.0000E-12,,18.7741,18.7740,0.0621,,98.155,75.231,,,,,,,,,,,,
CalCOFI,2007SR,020,21,2007_020d,17-Jul-2020 05:38:20,16-Jul-2020 21:38:20,31.08513,-122.66184,090.0 100.0,090.0,100.0,16.000,16.112,,18.7770,,18.7770,,18.7770,33.3211,,33.3213,33.3218,,33.3234,33.3224,5.2508,,5.4689,5.4559,4.0200,,5.6557,4.3169,4.8864,229.049,238.6162,239.8299,175.361,394.6763,188.7148,214.2724,0.0337,,,0.0478,,,,,23.7952,,23.7958,,0.6575,84.8416,,8.123,,1.9043E+00,,1.0000E-12,,18.7742,18.7742,0.0662,,98.209,75.189,,,,,,,,,,,,
CalCOFI,2007SR,020,21,2007_020d,17-Jul-2020 05:38:23,16-Jul-2020 21:38:23,31.08513,-122.66184,090.0 100.0,090.0,100.0,17.000,17.119,,18.7772,,18.7771,,18.7772,33.3211,,33.3213,33.3217,,33.3233,33.3223,5.2463,,5.4642,5.4512,4.0202,,5.6562,4.3173,4.8843,228.854,238.4126,239.6235,175.370,394.1994,188.7359,214.1797,0.0339,,,0.0493,,,,,23.7952,,23.7957,,0.6571,84.8497,,8.123,,1.9043E+00,,1.0000E-12,,18.7742,18.7741,0.0703,,98.126,75.193,,,,,,,,,,,,
CalCOFI,2007SR,020,21,2007_020d,17-Jul-2020 05:38:26,16-Jul-2020 21:38:26,31.08512,-122.66184,090.0 100.0,090.0,100.0,18.000,18.126,,18.7773,,18.7773,,18.7773,33.3211,,33.3213,33.3217,,33.3233,33.3223,5.2489,,5.4669,5.4539,4.0201,,5.6560,4.3171,4.8855,228.967,238.5306,239.7431,175.367,394.4758,188.7289,214.2360,0.0340,,,0.0500,,,,,23.7952,,23.7957,,0.6567,84.8589,,8.123,,1.9043E+00,,1.0000E-12,,18.7742,18.7742,0.0745,,98.174,75.192,,,,,,,,,,,,
CalCOFI,2007SR,020,21,2007_020d,17-Jul-2020 05:38:28,16-Jul-2020 21:38:28,31.08512,-122.66184,090.0 100.0,090.0,100.0,19.000,19.133,,18.7765,,18.7762,,18.7764,33.3210,,33.3212,33.3216,,33.3232,33.3222,5.2459,,5.4637,5.4508,4.0208,,5.6577,4.3187,4.8848,228.839,238.3969,239.6077,175.393,394.1627,188.7899,214.1988,0.0357,,,0.0623,,,,,23.7954,,23.7959,,0.6572,84.8482,,8.123,,1.9043E+00,,1.0000E-12,,18.7731,18.7728,0.0786,,98.117,75.202,,,,,,,,,,,,
CalCOFI,2007SR,020,21,2007_020d,17-Jul-2020 05:38:29,16-Jul-2020 21:38:29,31.08512,-122.66184,090.0 100.0,090.0,100.0,20.000,20.140,,18.7753,,18.7752,,18.7753,33.3211,,33.3213,33.3218,,33.3234,33.3224,5.2506,,5.4687,5.4557,4.0213,,5.6588,4.3198,4.8878,229.041,238.6078,239.8214,175.418,394.6568,188.8486,214.3350,0.0335,,,0.0463,,,,,23.7958,,23.7963,,0.6576,84.8405,,8.123,,1.9043E+00,,1.0000E-12,,18.7718,18.7717,0.0827,,98.202,75.211,,,,,,,,,,,,
CalCOFI,2007SR,020,21,2007_020d,17-Jul-2020 05:38:30,16-Jul-2020 21:38:30,31.08512,-122.66184,090.0 100.0,090.0,100.0,21.000,21.147,,18.7757,,18.7759,,18.7758,33.3210,,33.3212,33.3217,,33.3233,33.3223,5.2462,,5.4641,5.4511,4.0217,,5.6598,4.3207,4.8859,228.850,238.4084,239.6193,175.433,394.1896,188.8838,214.2516,0.0327,,,0.0405,,,,,23.7957,,23.7962,,0.6579,84.8328,,8.123,,1.9043E+00,,1.0000E-12,,18.7720,18.7722,0.0869,,98.121,75.219,,,,,,,,,,,,
CalCOFI,2007SR,020,21,2007_020d,17-Jul-2020 05:38:33,16-Jul-2020 21:38:33,31.08513,-122.66184,090.0 100.0,090.0,100.0,22.000,22.154,,18.7747,,18.7739,,18.7743,33.3210,,33.3212,33.3216,,33.3232,33.3222,5.2412,,5.4588,5.4458,4.0194,,5.6543,4.3155,4.8807,228.631,238.1798,239.3875,175.334,393.6540,188.6515,214.0195,0.0335,,,0.0463,,,,,23.7960,,23.7967,,0.6570,84.8525,,8.123,,1.9043E+00,,1.0000E-12,,18.7708,18.7700,0.0914,,98.025,75.174,,,,,,,,,,,,
CalCOFI,2007SR,020,21,2007_020d,17-Jul-2020 05:38:37,16-Jul-2020 21:38:37,31.08512,-122.66184,090.0 100.0,090.0,100.0,23.000,23.161,,18.7685,,18.7674,,18.7680,33.3190,,33.3192,33.3187,,33.3203,33.3198,5.2462,,5.4641,5.4511,4.0202,,5.6562,4.3173,4.8842,228.848,238.4063,239.6172,175.369,394.1847,188.7336,214.1754,0.0339,,,0.0493,,,,,23.7961,,23.7961,,0.6576,84.8395,,8.123,,1.9043E+00,,1.0000E-12,,18.7644,18.7633,0.0960,,98.106,75.178,,,,,,,,,,,,
CalCOFI,2007SR,020,21,2007_020d,17-Jul-2020 05:38:38,16-Jul-2020 21:38:38,31.08512,-122.66184,090.0 100.0,090.0,100.0,24.000,24.168,,18.6954,,18.6901,,18.6928,33.3169,,33.3171,33.3171,,33.3187,33.3179,5.2599,,5.4784,5.4655,4.0264,,5.6710,4.3312,4.8984,229.441,239.0254,240.2447,175.636,395.6351,189.3602,214.8025,0.0340,,,0.0500,,,,,23.8127,,23.8142,,0.6596,84.7978,,8.124,,1.9043E+00,,1.0000E-12,,18.6912,18.6859,0.1001,,98.226,75.184,,,,,,,,,,,,
CalCOFI,2007SR,020,21,2007_020d,17-Jul-2020 05:38:38,16-Jul-2020 21:38:38,31.08512,-122.66184,090.0 100.0,090.0,100.0,25.000,25.175,,18.6843,,18.6835,,18.6839,33.3181,,33.3183,33.3188,,33.3204,33.3194,5.2574,,5.4758,5.4629,4.0276,,5.6739,4.3339,4.8984,229.333,238.9126,240.1304,175.686,395.3710,189.4775,214.8040,0.0341,,,0.0507,,,,,23.8165,,23.8172,,0.6600,84.7894,,8.124,,1.9043E+00,,1.0000E-12,,18.6800,18.6791,0.1042,,98.160,75.197,,,,,,,,,,,,
CalCOFI,2007SR,020,21,2007_020d,17-Jul-2020 05:38:39,16-Jul-2020 21:38:39,31.08513,-122.66184,090.0 100.0,090.0,100.0,26.000,26.182,,18.6824,,18.6820,,18.6822,33.3179,,33.3181,33.3185,,33.3201,33.3191,5.2574,,5.4758,5.4629,4.0282,,5.6753,4.3352,4.8991,229.332,238.9116,240.1294,175.714,395.3685,189.5432,214.8363,0.0342,,,0.0515,,,,,23.8169,,23.8175,,0.6600,84.7894,,8.124,,1.9043E+00,,1.0000E-12,,18.6779,18.6775,0.1084,,98.156,75.207,,,,,,,,,,,,
CalCOFI,2007SR,020,21,2007_020d,17-Jul-2020 05:38:43,16-Jul-2020 21:38:43,31.08513,-122.66184,090.0 100.0,090.0,100.0,27.000,27.189,,18.6949,,18.6989,,18.6969,33.3185,,33.3187,33.3194,,33.3210,33.3199,5.2539,,5.4721,5.4592,4.0234,,5.6639,4.3245,4.8919,229.181,238.7539,239.9696,175.503,394.9992,189.0480,214.5088,0.0340,,,0.0500,,,,,23.8143,,23.8140,,0.6595,84.8009,,8.124,,1.9043E+00,,1.0000E-12,,18.6901,18.6941,0.1132,,98.114,75.141,27,18.643,33.3058,5.409,236.13,0.074,0.019,,,,,1.23
CalCOFI,2007SR,020,21,2007_020d,17-Jul-2020 05:38:46,16-Jul-2020 21:38:46,31.08512,-122.66184,090.0 100.0,090.0,100.0,28.000,28.196,,18.6922,,18.6903,,18.6913,33.3183,,33.3185,33.3187,,33.3203,33.3194,5.2573,,5.4757,5.4628,4.0247,,5.6670,4.3274,4.8951,229.327,238.9064,240.1241,175.560,395.3563,189.1818,214.6530,0.0342,,,0.0515,,,,,23.8149,,23.8156,,0.6595,84.8001,,8.124,,1.9043E+00,,1.0000E-12,,18.6873,18.6854,0.1180,,98.172,75.152,,,,,,,,,,,,
CalCOFI,2007SR,020,21,2007_020d,17-Jul-2020 05:38:47,16-Jul-2020 21:38:47,31.08512,-122.66184,090.0 100.0,090.0,100.0,29.000,29.203,,18.6816,,18.6804,,18.6810,33.3179,,33.3181,33.3183,,33.3199,33.3190,5.2562,,5.4745,5.4616,4.0259,,5.6698,4.3301,4.8959,229.279,238.8562,240.0733,175.616,395.2389,189.3132,214.6933,0.0338,,,0.0485,,,,,23.8172,,23.8178,,0.6603,84.7830,,8.124,,1.9043E+00,,1.0000E-12,,18.6765,18.6754,0.1221,,98.132,75.163,,,,,,,,,,,,
CalCOFI,2007SR,020,21,2007_020d,17-Jul-2020 05:38:48,16-Jul-2020 21:38:48,31.08512,-122.66184,090.0 100.0,090.0,100.0,30.000,30.210,,18.6774,,18.6767,,18.6771,33.3178,,33.3180,33.3185,,33.3201,33.3191,5.2525,,5.4706,5.4577,4.0265,,5.6713,4.3314,4.8946,229.119,238.6892,239.9040,175.642,394.8476,189.3742,214.6391,0.0342,,,0.0515,,,,,23.8182,,23.8189,,0.6608,84.7731,,8.124,,1.9043E+00,,1.0000E-12,,18.6721,18.6715,0.1262,,98.055,75.168,,,,,,,,,,,,
CalCOFI,2007SR,020,21,2007_020d,17-Jul-2020 05:38:50,16-Jul-2020 21:38:50,31.08513,-122.66184,090.0 100.0,090.0,100.0,31.000,31.218,,18.6767,,18.6776,,18.6772,33.3180,,33.3182,33.3189,,33.3205,33.3194,5.2521,,5.4702,5.4573,4.0233,,5.6636,4.3243,4.8908,229.102,238.6715,239.8860,175.499,394.8060,189.0387,214.4624,0.0342,,,0.0515,,,,,23.8186,,23.8190,,0.6606,84.7765,,8.124,,1.9043E+00,,1.0000E-12,,18.6713,18.6722,0.1303,,98.047,75.109,,,,,,,,,,,,
CalCOFI,2007SR,020,21,2007_020d,17-Jul-2020 05:38:54,16-Jul-2020 21:38:54,31.08512,-122.66184,090.0 100.0,090.0,100.0,32.000,32.225,,18.6790,,18.6795,,18.6793,33.3180,,33.3182,33.3187,,33.3203,33.3193,5.2544,,5.4726,5.4597,4.0241,,5.6655,4.3261,4.8929,229.202,238.7759,239.9918,175.534,395.0506,189.1208,214.5563,0.0356,,,0.0616,,,,,23.8181,,23.8184,,0.6605,84.7785,,8.124,,1.9043E+00,,1.0000E-12,,18.6734,18.6739,0.1344,,98.094,75.126,,,,,,,,,,,,
CalCOFI,2007SR,020,21,2007_020d,17-Jul-2020 05:38:56,16-Jul-2020 21:38:56,31.08512,-122.66184,090.0 100.0,090.0,100.0,33.000,33.232,,18.6750,,18.6753,,18.6752,33.3178,,33.3180,33.3184,,33.3200,33.3190,5.2543,,5.4725,5.4596,4.0248,,5.6672,4.3276,4.8936,229.197,238.7706,239.9865,175.565,395.0383,189.1935,214.5900,0.0351,,,0.0580,,,,,23.8189,,23.8193,,0.6609,84.7713,,8.124,,1.9043E+00,,1.0000E-12,,18.6693,18.6695,0.1385,,98.085,75.133,,,,,,,,,,,,
CalCOFI,2007SR,020,21,2007_020d,17-Jul-2020 05:38:57,16-Jul-2020 21:38:57,31.08512,-122.66184,090.0 100.0,090.0,100.0,34.000,34.239,,18.6728,,18.6722,,18.6725,33.3175,,33.3177,33.3182,,33.3198,33.3188,5.2550,,5.4732,5.4603,4.0252,,5.6682,4.3285,4.8944,229.227,238.8020,240.0183,175.582,395.1117,189.2334,214.6259,0.0352,,,0.0587,,,,,23.8193,,23.8200,,0.6614,84.7600,,8.124,,1.9043E+00,,1.0000E-12,,18.6669,18.6662,0.1426,,98.093,75.136,,,,,,,,,,,,
CalCOFI,2007SR,020,21,2007_020d,17-Jul-2020 05:38:58,16-Jul-2020 21:38:58,31.08512,-122.66184,090.0 100.0,090.0,100.0,35.000,35.246,,18.6709,,18.6705,,18.6707,33.3174,,33.3176,33.3180,,33.3196,33.3186,5.2544,,5.4726,5.4597,4.0258,,5.6696,4.3299,4.8948,229.202,238.7759,239.9918,175.608,395.0506,189.2944,214.6431,0.0347,,,0.0551,,,,,23.8198,,23.8203,,0.6618,84.7510,,8.124,,1.9043E+00,,1.0000E-12,,18.6648,18.6644,0.1467,,98.079,75.145,,,,,,,,,,,,
CalCOFI,2007SR,020,21,2007_020d,17-Jul-2020 05:39:00,16-Jul-2020 21:39:00,31.08512,-122.66184,090.0 100.0,090.0,100.0,36.000,36.253,,18.6695,,18.6694,,18.6695,33.3174,,33.3176,33.3180,,33.3196,33.3186,5.2617,,5.4803,5.4674,4.0236,,5.6643,4.3249,4.8962,229.522,239.1099,240.3305,175.515,395.8332,189.0762,214.7034,0.0350,,,0.0572,,,,,23.8201,,23.8206,,0.6610,84.7683,,8.124,,1.9043E+00,,1.0000E-12,,18.6632,18.6631,0.1508,,98.213,75.104,,,,,,,,,,,,
CalCOFI,2007SR,020,21,2007_020d,17-Jul-2020 05:39:03,16-Jul-2020 21:39:03,31.08512,-122.66184,090.0 100.0,090.0,100.0,37.000,37.260,,18.6693,,18.6704,,18.6699,33.3174,,33.3176,33.3182,,33.3198,33.3187,5.2472,,5.4651,5.4521,4.0218,,5.6600,4.3209,4.8865,228.887,238.4470,239.6585,175.436,394.2801,188.8908,214.2747,0.0357,,,0.0623,,,,,23.8202,,23.8206,,0.6604,84.7815,,8.124,,1.9043E+00,,1.0000E-12,,18.6629,18.6639,0.1550,,97.941,75.072,,,,,,,,,,,,
CalCOFI,2007SR,020,21,2007_020d,17-Jul-2020 05:39:07,16-Jul-2020 21:39:07,31.08512,-122.66184,090.0 100.0,090.0,100.0,38.000,38.267,,18.6580,,18.6524,,18.6552,33.3156,,33.3158,33.3150,,33.3166,33.3162,5.2635,,5.4821,5.4693,4.0274,,5.6734,4.3334,4.9014,229.599,239.1903,240.4119,175.679,396.0216,189.4611,214.9365,0.0359,,,0.0637,,,,,23.8217,,23.8227,,0.6619,84.7496,,8.124,,1.9043E+00,,1.0000E-12,,18.6513,18.6458,0.1591,,98.224,75.149,,,,,,,,,,,,
CalCOFI,2007SR,020,21,2007_020d,17-Jul-2020 05:39:08,16-Jul-2020 21:39:08,31.08512,-122.66184,090.0 100.0,090.0,100.0,39.000,39.274,,18.5981,,18.5879,,18.5930,33.3108,,33.3110,33.3096,,33.3112,33.3111,5.3547,,5.5774,5.5651,4.0138,,5.6409,4.3030,4.9341,233.574,243.3398,244.6185,175.085,405.7438,188.0671,216.3428,0.0365,,0.0047,0.0680,,,,,23.8330,,23.8347,,0.6648,84.6869,,8.124,,1.9043E+00,,1.0000E-12,,18.5913,18.5811,0.1632,,99.811,74.802,,,,,,,,,,,,
CalCOFI,2007SR,020,21,2007_020d,17-Jul-2020 05:39:08,16-Jul-2020 21:39:08,31.08512,-122.66184,090.0 100.0,090.0,100.0,40.000,40.282,,18.4777,,18.4479,,18.4628,33.2944,,33.2946,33.2827,,33.2843,33.2895,5.3801,,5.6040,5.5918,4.0319,,5.6842,4.3435,4.9677,234.676,244.4902,245.7847,175.869,408.4392,189.9069,217.8458,0.0390,,0.0340,0.0854,,,,,23.8504,,23.8488,,0.6738,84.4968,,8.124,,1.9043E+00,,1.0000E-12,,18.4707,18.4410,0.1673,,100.046,74.928,,,,,,,,,,,,
CalCOFI,2007SR,020,21,2007_020d,17-Jul-2020 05:39:10,16-Jul-2020 21:39:10,31.08512,-122.66184,090.0 100.0,090.0,100.0,41.000,41.289,,18.0810,,18.0699,,18.0755,33.2743,,33.2745,33.2723,,33.2739,33.2742,5.4106,,5.6358,5.6239,4.0843,,5.8092,4.4607,5.0423,235.987,245.8587,247.1721,178.143,411.6457,195.2433,221.2077,0.0397,,0.0422,0.0902,,,,,23.9326,,23.9338,,0.6755,84.4613,,8.127,,1.9043E+00,,1.0000E-12,,18.0740,18.0629,0.1713,,99.850,75.358,41,16.310,33.1950,,262.52,0.092,0.026,,,,,1.42
CalCOFI,2007SR,020,21,2007_020d,17-Jul-2020 05:39:13,16-Jul-2020 21:39:13,31.08512,-122.66184,090.0 100.0,090.0,100.0,42.000,42.296,,18.1733,,18.1302,,18.1518,33.2886,,33.2888,33.2896,,33.2912,33.2900,5.3526,,5.5752,5.5629,4.0847,,5.8102,4.4616,5.0123,233.463,243.2239,244.5011,178.159,405.4724,195.2809,219.8910,0.0404,,0.0505,0.0949,,,,,23.9211,,23.9324,,0.6710,84.5554,,8.128,,1.9043E+00,,1.0000E-12,,18.1661,18.1230,0.1753,,98.962,75.459,,,,,,,,,,,,
CalCOFI,2007SR,020,21,2007_020d,17-Jul-2020 05:39:17,16-Jul-2020 21:39:17,31.08512,-122.66184,090.0 100.0,090.0,100.0,43.000,43.303,,17.9212,,17.7386,,17.8299,33.2370,,33.2372,33.2066,,33.2082,33.2227,5.5706,,5.8030,5.7921,4.1483,,5.9620,4.6038,5.1980,242.965,253.1431,254.5566,180.929,428.7129,201.7812,228.1689,0.0388,,0.0317,0.0840,,,,,23.9427,,23.9634,,0.6724,84.5263,,8.130,,1.9043E+00,,1.0000E-12,,17.9139,17.7314,0.1794,,102.464,76.025,,,,,,,,,,,,
CalCOFI,2007SR,020,21,2007_020d,17-Jul-2020 05:39:18,16-Jul-2020 21:39:18,31.08512,-122.66184,090.0 100.0,090.0,100.0,44.000,44.310,,16.9190,,16.8159,,16.8675,33.1804,,33.1806,33.1655,,33.1671,33.1739,5.7346,,5.9744,5.9645,4.2181,,6.1287,4.7599,5.3622,250.072,260.5621,262.0777,183.939,446.0956,208.8448,235.4613,0.0380,,0.0223,0.0785,,,,,24.1387,,24.1513,,0.6736,84.5006,,8.137,,1.9043E+00,,1.0000E-12,,16.9118,16.8088,0.1833,,103.443,75.930,,,,,,,,,,,,
CalCOFI,2007SR,020,21,2007_020d,17-Jul-2020 05:39:18,16-Jul-2020 21:39:18,31.08512,-122.66184,090.0 100.0,090.0,100.0,45.000,45.317,,16.5408,,16.5130,,16.5269,33.1768,,33.1770,33.1768,,33.1784,33.1777,5.7684,,6.0097,6.0000,4.2393,,6.1793,4.8073,5.4037,251.525,262.0788,263.6153,184.849,449.6494,210.9803,237.2978,0.0378,,0.0199,0.0771,,,,,24.2238,,24.2303,,0.6725,84.5232,,8.140,,1.9043E+00,,1.0000E-12,,16.5336,16.5058,0.1870,,103.292,75.870,,,,,,,,,,,,
CalCOFI,2007SR,020,21,2007_020d,17-Jul-2020 05:39:19,16-Jul-2020 21:39:19,31.08512,-122.66184,090.0 100.0,090.0,100.0,46.000,46.324,,16.3575,,16.3539,,16.3557,33.1731,,33.1733,33.1723,,33.1739,33.1736,5.7897,,6.0320,6.0224,4.2539,,6.2141,4.8400,5.4312,252.443,263.0371,264.5868,185.478,451.8947,212.4563,238.5216,0.0388,,0.0317,0.0840,,,,,24.2631,,24.2633,,0.6713,84.5501,,8.142,,1.9043E+00,,1.0000E-12,,16.3502,16.3466,0.1907,,103.301,75.893,,,,,,,,,,,,
CalCOFI,2007SR,020,21,2007_020d,17-Jul-2020 05:39:23,16-Jul-2020 21:39:23,31.08512,-122.66184,090.0 100.0,090.0,100.0,47.000,47.332,,16.5363,,16.5825,,16.5594,33.1961,,33.1963,33.2032,,33.2048,33.2006,5.7191,,5.9582,5.9482,4.2609,,6.2308,4.8556,5.4019,249.372,259.8313,261.3369,185.792,444.3835,213.1932,237.2651,0.0380,,0.0223,0.0785,,,,,24.2397,,24.2346,,0.6701,84.5759,,8.139,,1.9043E+00,,1.0000E-12,,16.5288,16.5749,0.1944,,102.413,76.372,,,,,,,,,,,,
CalCOFI,2007SR,020,21,2007_020d,17-Jul-2020 05:39:26,16-Jul-2020 21:39:26,31.08512,-122.66184,090.0 100.0,090.0,100.0,48.000,48.339,,16.2746,,16.2327,,16.2537,33.1728,,33.1730,33.1693,,33.1709,33.1720,5.8090,,6.0521,6.0427,4.3034,,6.3323,4.9507,5.4967,253.278,263.9088,265.4705,187.631,453.9370,217.5088,241.4897,0.0390,,0.0340,0.0854,,,,,24.2818,,24.2886,,0.6689,84.6012,,8.141,,1.9043E+00,,1.0000E-12,,16.2670,16.2251,0.1981,,103.476,76.592,,,,,,,,,,,,
CalCOFI,2007SR,020,21,2007_020d,17-Jul-2020 05:39:27,16-Jul-2020 21:39:27,31.08512,-122.66184,090.0 100.0,090.0,100.0,49.000,49.346,,15.9945,,15.9865,,15.9905,33.1955,,33.1957,33.1990,,33.2006,33.1982,5.8299,,6.0740,6.0647,4.3264,,6.3872,5.0021,5.5334,254.171,264.8410,266.4155,188.620,456.1212,219.8297,243.1226,0.0378,,0.0199,0.0771,,,,,24.3629,,24.3674,,0.6666,84.6496,,8.143,,1.9043E+00,,1.0000E-12,,15.9868,15.9788,0.2018,,103.296,76.646,,,,,,,,,,,,
CalCOFI,2007SR,020,21,2007_020d,17-Jul-2020 05:39:29,16-Jul-2020 21:39:29,31.08512,-122.66184,090.0 100.0,090.0,100.0,50.000,50.353,,15.9922,,15.9910,,15.9916,33.2271,,33.2273,33.2307,,33.2323,33.2298,5.8242,,6.0680,6.0587,4.3320,,6.4006,5.0146,5.5367,253.918,264.5769,266.1477,188.858,455.5024,220.3882,243.2680,0.0387,,0.0305,0.0833,,,,,24.3878,,24.3908,,0.6653,84.6759,,8.143,,1.9043E+00,,1.0000E-12,,15.9843,15.9831,0.2053,,103.211,76.766,,,,,,,,,,,,
CalCOFI,2007SR,020,21,2007_020d,17-Jul-2020 05:39:31,16-Jul-2020 21:39:31,31.08512,-122.66184,090.0 100.0,090.0,100.0,51.000,51.360,,15.9651,,15.9578,,15.9615,33.2297,,33.2299,33.2311,,33.2327,33.2313,5.8376,,6.0820,6.0728,4.3420,,6.4245,5.0370,5.5549,254.497,265.1813,266.7605,189.295,456.9185,221.4137,244.0871,0.0390,,0.0340,0.0854,0.3164,,0.0000,0.000,24.3959,,24.3986,,0.6644,84.6962,,8.144,,1.9043E+00,,1.0000E-12,,15.9571,15.9498,0.2089,,103.394,76.894,,,,,,,,,,,,